This demonstration page uses our WeatherBlox Daily Observations layout. Learn more.

Left ArrowRight Arrow

38.83388, -104.82136

Hourly Observations for August 9, 2022

Temp ( °F °C ) Dew Point ( °F °C ) Humidity (%) Winds ( mph kmh ) Pressure ( in mb ) Visibility ( mi km ) Precip ( " mm )
12:54 am 00:54 Mostly Cloudy 64 17.8 58 14.4 80 80 NNE 6 9 30.05 1018 10 16 0.00 0.00
1:54 am 01:54 Mostly Clear 62 16.7 57 13.9 84 84 NNE 9 15 30.04 1017 10 16 0.00 0.00
2:54 am 02:54 Partly Cloudy 63 17.2 55 12.8 75 75 N 5 7 30.02 1017 10 16 0.00 0.00
3:54 am 03:54 Mostly Clear 61 16.1 54 12.2 78 78 Calm 30.03 1017 10 16 0.00 0.00
4:54 am 04:54 Mostly Clear 60 15.6 53 11.7 78 78 N 5 7 30.04 1017 10 16 0.00 0.00
5:54 am 05:54 Mostly Cloudy 61 16.1 53 11.7 75 75 Calm 30.04 1017 10 16 0.00 0.00
6:54 am 06:54 Mostly Cloudy 60 15.6 54 12.2 80 80 N 7 11 30.08 1019 10 16 0.00 0.00
7:54 am 07:54 Mostly Cloudy 66 18.9 58 14.4 75 75 WNW 6 9 30.08 1019 10 16 0.00 0.00
8:54 am 08:54 Partly Cloudy 72 22.2 55 12.8 55 55 VRB 3 6 30.09 1019 10 16 0.00 0.00
9:54 am 09:54 Partly Cloudy 74 23.3 58 14.4 57 57 VRB 5 7 30.07 1018 10 16 0.00 0.00
10:54 am 10:54 Mostly Sunny 78 25.6 59 15 52 52 Calm 30.06 1018 10 16 0.00 0.00
11:54 am 11:54 Mostly Cloudy 79 26.1 58 14.4 49 49 VRB 5 7 30.06 1018 10 16 0.00 0.00
12:54 pm 12:54 Mostly Cloudy 82 27.8 58 14.4 44 44 SSE 10 17 30.05 1018 10 16 0.00 0.00
1:54 pm 13:54 Mostly Cloudy 85 29.4 55 12.8 36 36 SSE 12 19 30.04 1017 10 16 0.00 0.00
2:54 pm 14:54 Partly Cloudy 85 29.4 52 11.1 32 32 ESE 10 17 30.03 1017 10 16 0.00 0.00
3:54 pm 15:54 Mostly Cloudy 84 28.9 51 10.6 32 32 ESE 8 13 30.03 1017 10 16 0.00 0.00
4:54 pm 16:54 Mostly Cloudy 84 28.9 50 10 31 31 SE 12 19 30.02 1017 10 16 0.00 0.00
5:54 pm 17:54 Partly Cloudy 84 28.9 47 8.3 27 27 E 8 13 30.02 1017 10 16 0.00 0.00
6:54 pm 18:54 Mostly Sunny 82 27.8 50 10 33 33 ESE 8 13 30.03 1017 10 16 0.00 0.00
7:54 pm 19:54 Mostly Sunny 77 25 51 10.6 40 40 ESE 9 15 30.04 1017 10 16 0.00 0.00
8:54 pm 20:54 Mostly Clear 75 23.9 50 10 41 41 E 9 15 30.05 1018 10 16 0.00 0.00
9:54 pm 21:54 Clear 74 23.3 52 11.1 46 46 E 10 17 30.08 1019 10 16 0.00 0.00
10:54 pm 22:54 Clear 71 21.7 54 12.2 55 55 E 9 15 30.09 1019 10 16 0.00 0.00
11:54 pm 23:54 Mostly Clear 68 20 55 12.8 63 63 S 3 6 30.13 1020 10 16 0.00 0.00

Powered by AerisWeather